QPF
0.01 0.02 0.02 0.04 0.05 0.04 0.06 0.05 0.05 0.06 0.05 0.05 0.05 0.06 0.07 0.08 0.09 0.09 0.08 0.08 0.08 0.08 0.07 0.07 0.08 0.09 0.09 0.09 0.08 0.08 0.08 0.07 0.06 0.04 0.03 0.02 0.02 0.03 0.03 0.02 0.02 0.02 0.03
0.02 0.02 0.03 0.04 0.03 0.02 0.03 0.04 0.04 0.04 0.04 0.04 0.05 0.05 0.05 0.06 0.06 0.06 0.06 0.05 0.06 0.07 0.08 0.09 0.09 0.09 0.10 0.10 0.11 0.10 0.10 0.10 0.09 0.07 0.05 0.05 0.05 0.04 0.04 0.04 0.04 0.05 0.04
0.01 0.01 0.02 0.02 0.02 0.03 0.03 0.04 0.06 0.08 0.05 0.04 0.04 0.04 0.04 0.05 0.06 0.06 0.06 0.06 0.06 0.06 0.07 0.08 0.08 0.09 0.09 0.11 0.11 0.12 0.13 0.14 0.15 0.13 0.11 0.10 0.08 0.09 0.10 0.10 0.09 0.07 0.03
0.01 0.01 0.01 0.02 0.02 0.02 0.03 0.03 0.04 0.04 0.04 0.05 0.05 0.05 0.06 0.06 0.07 0.07 0.07 0.08 0.08 0.08 0.08 0.09 0.10 0.10 0.11 0.14 0.15 0.15 0.17 0.17 0.16 0.15 0.13 0.11 0.10 0.10 0.12 0.11 0.09 0.07 0.06
0.02 0.01 0.02 0.02 0.01 0.01 0.02 0.03 0.03 0.02 0.03 0.04 0.04 0.05 0.06 0.06 0.07 0.10 0.10 0.09 0.10 0.10 0.10 0.11 0.12 0.14 0.16 0.17 0.16 0.18 0.18 0.16 0.14 0.12 0.11 0.10 0.09 0.09 0.09 0.09 0.10 0.10 0.09
0.02 0.02 0.02 0.02 0.02 0.02 0.02 0.02 0.02 0.02 0.02 0.02 0.02 0.03 0.04 0.05 0.08 0.11 0.14 0.16 0.17 0.17 0.17 0.16 0.15 0.15 0.14 0.14 0.13 0.13 0.13 0.13 0.12 0.11 0.10 0.09 0.08 0.09 0.10 0.10 0.11 0.10 0.09
0.02 0.01 0.01 0.02 0.02 0.02 0.02 0.02 0.02 0.02 0.02 0.02 0.02 0.03 0.03 0.05 0.07 0.10 0.13 0.13 0.14 0.15 0.15 0.15 0.11 0.09 0.08 0.07 0.09 0.10 0.09 0.09 0.09 0.08 0.08 0.08 0.07 0.07 0.09 0.10 0.09 0.09 0.09
0.02 0.01 0.01 0.01 0.01 0.02 0.02 0.03 0.03 0.03 0.03 0.03 0.03 0.03 0.03 0.05 0.08 0.10 0.10 0.09 0.08 0.09 0.12 0.12 0.11 0.10 0.08 0.07 0.07 0.06 0.06 0.06 0.06 0.06 0.06 0.06 0.07 0.07 0.09 0.10 0.11 0.11 0.11
0.04 0.03 0.02 0.01 0.01 0.01 0.02 0.03 0.04 0.04 0.04 0.05 0.05 0.05 0.05 0.06 0.07 0.08 0.08 0.09 0.10 0.11 0.11 0.10 0.09 0.07 0.08 0.08 0.06 0.05 0.05 0.05 0.06 0.07 0.08 0.09 0.10 0.10 0.10 0.11 0.12 0.13 0.13
0.08 0.06 0.04 0.02 0.02 0.02 0.04 0.04 0.04 0.04 0.05 0.06 0.06 0.07 0.06 0.05 0.07 0.08 0.06 0.05 0.06 0.07 0.06 0.05 0.06 0.06 0.07 0.06 0.05 0.05 0.06 0.06 0.06 0.06 0.08 0.10 0.11 0.12 0.13 0.12 0.13 0.14 0.15
0.06 0.05 0.04 0.03 0.02 0.02 0.02 0.03 0.03 0.04 0.04 0.04 0.03 0.03 0.04 0.05 0.07 0.09 0.06 0.03 0.03 0.03 0.03 0.03 0.04 0.05 0.04 0.04 0.03 0.03 0.04 0.04 0.04 0.04 0.04 0.05 0.06 0.07 0.09 0.10 0.11 0.12 0.12
0.04 0.04 0.04 0.03 0.03 0.02 0.03 0.02 0.02 0.02 0.03 0.03 0.03 0.04 0.04 0.04 0.05 0.06 0.05 0.05 0.05 0.05 0.05 0.04 0.04 0.05 0.04 0.04 0.04 0.04 0.04 0.03 0.03 0.04 0.04 0.05 0.05 0.06 0.06 0.06 0.06 0.07 0.07
0.03 0.03 0.03 0.04 0.03 0.03 0.03 0.04 0.03 0.02 0.02 0.02 0.03 0.02 0.02 0.02 0.03 0.05 0.05 0.05 0.04 0.04 0.05 0.05 0.05 0.06 0.06 0.05 0.05 0.04 0.03 0.03 0.04 0.04 0.04 0.04 0.04 0.05 0.04 0.04 0.04 0.04 0.03
0.04 0.04 0.04 0.04 0.04 0.05 0.05 0.06 0.06 0.04 0.04 0.04 0.03 0.02 0.02 0.02 0.03 0.05 0.05 0.05 0.06 0.06 0.06 0.07 0.08 0.08 0.07 0.06 0.05 0.03 0.03 0.03 0.03 0.02 0.02 0.03 0.03 0.03 0.03 0.02 0.02 0.02 0.02
0.03 0.04 0.06 0.07 0.08 0.09 0.09 0.09 0.07 0.05 0.04 0.04 0.03 0.03 0.03 0.03 0.04 0.04 0.04 0.05 0.07 0.09 0.09 0.09 0.09 0.08 0.06 0.05 0.04 0.03 0.02 0.02 0.02 0.01 0.02 0.02 0.02 0.02 0.02 0.02 0.02 0.02 0.02
0.01 0.01 0.04 0.05 0.05 0.04 0.05 0.06 0.07 0.04 0.04 0.04 0.04 0.04 0.03 0.03 0.03 0.02 0.02 0.03 0.04 0.06 0.08 0.08 0.08 0.06 0.05 0.04 0.03 0.03 0.02 0.02 0.01 0.01 0.01 0.01 0.01 0.01 0.01 0.01 0.01 0.01 0.02
0.01 0.01 0.02 0.03 0.03 0.02 0.02 0.02 0.03 0.03 0.03 0.03 0.02 0.02 0.02 0.02 0.02 0.02 0.02 0.02 0.02 0.03 0.03 0.04 0.04 0.04 0.03 0.03 0.02 0.02 0.01 0.01 0.01 0.01 0.01 0.01 0.01 0.01 0.01 0.02 0.02 0.03 0.04
0.00 0.01 0.01 0.02 0.02 0.02 0.01 0.01 0.01 0.02 0.02 0.02 0.02 0.01 0.01 0.01 0.01 0.01 0.01 0.01 0.01 0.02 0.02 0.02 0.02 0.02 0.01 0.01 0.01 0.01 0.01 0.01 0.01 0.00 0.01 0.01 0.02 0.03 0.04 0.05 0.05 0.06 0.05
0.01 0.00 0.01 0.01 0.01 0.01 0.01 0.01 0.02 0.01 0.01 0.01 0.01 0.01 0.01 0.01 0.01 0.01 0.02 0.02 0.02 0.02 0.03 0.03 0.03 0.02 0.02 0.02 0.02 0.02 0.01 0.01 0.01 0.01 0.01 0.01 0.02 0.02 0.02 0.02 0.02 0.02 0.02
0.01 0.01 0.01 0.01 0.01 0.02 0.02 0.02 0.02 0.01 0.01 0.00 0.00 0.00 0.00 0.01 0.01 0.01 0.01 0.02 0.02 0.03 0.03 0.04 0.04 0.04 0.04 0.04 0.04 0.03 0.03 0.02 0.01 0.01 0.01 0.01 0.01 0.00 0.00 0.00 0.01 0.01 0.01
0.01 0.01 0.01 0.01 0.01 0.01 0.01 0.01 0.01 0.01 0.01 0.00 0.00 0.00 0.01 0.01 0.01 0.01 0.01 0.01 0.01 0.01 0.02 0.03 0.03 0.03 0.04 0.04 0.03 0.03 0.02 0.01 0.01 0.01 0.01 0.01 0.00 0.00 0.00 0.00 0.00 0.00 0.01
0.01 0.01 0.00 0.00 0.01 0.01 0.01 0.01 0.00 0.01 0.01 0.00 0.00 0.00 0.01 0.00 0.00 0.00 0.00 0.00 0.01 0.01 0.01 0.01 0.02 0.02 0.02 0.02 0.02 0.02 0.01 0.01 0.01 0.00 0.00 0.00 0.00 0.00 0.00 0.00 0.00 0.00 0.01
0.02 0.01 0.01 0.01 0.01 0.01 0.01 0.01 0.01 0.01 0.01 0.01 0.01 0.01 0.01 0.01 0.01 0.01 0.01 0.01 0.01 0.01 0.01 0.01 0.01 0.01 0.01 0.01 0.01 0.01 0.01 0.00 0.00 0.00 0.00 0.00 0.00 0.00 0.00 0.00 0.00 0.00 0.00
0.02 0.02 0.01 0.01 0.01 0.01 0.01 0.01 0.01 0.01 0.01 0.01 0.00 0.00 0.00 0.00 0.01 0.01 0.01 0.01 0.01 0.00 0.00 0.00 0.00 0.00 0.00 0.00 0.00 0.00 0.00 0.00 0.00 0.00 0.00 0.00 0.00 0.00 0.00 0.00 0.00 0.00 0.00
0.01 0.01 0.01 0.01 0.01 0.00 0.00 0.01 0.01 0.01 0.01 0.01 0.01 0.00 0.00 0.00 0.00 0.00 0.00 0.00 0.00 0.00 0.00 0.00 0.00 0.00 0.00 0.00 0.00 0.00 0.00 0.00 0.00 0.00 0.00 0.00 0.00 0.00 0.00 0.00 0.00 0.00 0.00
0.00 0.00 0.01 0.01 0.00 0.00 0.00 0.00 0.00 0.00 0.00 0.00 0.00 0.00 0.00 0.00 0.00 0.00 0.00 0.00 0.00 0.00 0.00 0.00 0.00 0.00 0.00 0.00 0.00 0.00 0.00 0.00 0.00 0.00 0.00 0.00 0.00 0.00 0.00 0.00 0.00 0.00 0.00
MSLP
1015.73 1015.88 1016.03 1016.17 1016.32 1016.46 1016.59 1016.73 1016.88 1017.05 1017.24 1017.45 1017.68 1017.91 1018.14 1018.36 1018.56 1018.75 1018.92 1019.10 1019.27 1019.45 1019.62 1019.80 1019.95 1020.08 1020.16 1020.20 1020.19 1020.15 1020.10 1020.06 1020.08 1020.16 1020.32 1020.57 1020.89 1021.25 1021.61 1021.96 1022.25 1022.46 1022.59
1015.69 1015.82 1015.95 1016.09 1016.22 1016.36 1016.50 1016.65 1016.82 1017.01 1017.22 1017.46 1017.71 1017.98 1018.25 1018.52 1018.77 1019.01 1019.23 1019.43 1019.63 1019.82 1020.00 1020.16 1020.30 1020.40 1020.46 1020.48 1020.47 1020.45 1020.44 1020.47 1020.55 1020.71 1020.96 1021.29 1021.67 1022.08 1022.48 1022.85 1023.14 1023.36 1023.48
1015.65 1015.78 1015.91 1016.04 1016.19 1016.34 1016.51 1016.68 1016.88 1017.10 1017.34 1017.61 1017.90 1018.20 1018.51 1018.82 1019.11 1019.39 1019.66 1019.91 1020.14 1020.36 1020.55 1020.71 1020.83 1020.91 1020.96 1020.96 1020.95 1020.94 1020.95 1021.01 1021.14 1021.36 1021.66 1022.04 1022.46 1022.89 1023.31 1023.67 1023.96 1024.15 1024.25
1015.61 1015.75 1015.90 1016.06 1016.23 1016.42 1016.62 1016.84 1017.08 1017.34 1017.63 1017.93 1018.25 1018.58 1018.92 1019.26 1019.59 1019.91 1020.22 1020.51 1020.78 1021.02 1021.24 1021.41 1021.53 1021.60 1021.63 1021.62 1021.59 1021.57 1021.59 1021.66 1021.80 1022.04 1022.36 1022.74 1023.17 1023.60 1023.99 1024.33 1024.58 1024.73 1024.80
1015.60 1015.77 1015.94 1016.13 1016.35 1016.58 1016.84 1017.12 1017.42 1017.74 1018.07 1018.41 1018.76 1019.11 1019.46 1019.82 1020.17 1020.52 1020.86 1021.18 1021.49 1021.77 1022.01 1022.20 1022.33 1022.40 1022.42 1022.39 1022.34 1022.30 1022.29 1022.34 1022.47 1022.69 1022.98 1023.34 1023.74 1024.12 1024.48 1024.76 1024.95 1025.06 1025.08
1015.60 1015.81 1016.03 1016.27 1016.54 1016.84 1017.16 1017.51 1017.88 1018.25 1018.63 1019.01 1019.38 1019.74 1020.10 1020.45 1020.81 1021.16 1021.52 1021.87 1022.20 1022.51 1022.78 1022.99 1023.14 1023.22 1023.23 1023.18 1023.11 1023.04 1022.99 1023.00 1023.08 1023.25 1023.50 1023.80 1024.13 1024.46 1024.74 1024.96 1025.09 1025.14 1025.11
1015.63 1015.89 1016.16 1016.46 1016.79 1017.15 1017.55 1017.97 1018.41 1018.84 1019.27 1019.68 1020.06 1020.42 1020.77 1021.11 1021.45 1021.79 1022.14 1022.49 1022.84 1023.17 1023.47 1023.70 1023.87 1023.96 1023.97 1023.92 1023.82 1023.71 1023.62 1023.58 1023.60 1023.70 1023.88 1024.11 1024.36 1024.61 1024.82 1024.97 1025.04 1025.03 1024.95
1015.71 1016.02 1016.33 1016.68 1017.07 1017.50 1017.97 1018.47 1018.97 1019.46 1019.93 1020.36 1020.75 1021.11 1021.43 1021.74 1022.04 1022.35 1022.67 1023.01 1023.36 1023.70 1024.01 1024.27 1024.45 1024.56 1024.57 1024.51 1024.40 1024.26 1024.13 1024.04 1024.00 1024.04 1024.14 1024.29 1024.47 1024.65 1024.79 1024.87 1024.89 1024.83 1024.71
1015.85 1016.19 1016.55 1016.94 1017.38 1017.87 1018.40 1018.96 1019.52 1020.06 1020.57 1021.02 1021.41 1021.75 1022.04 1022.30 1022.55 1022.82 1023.11 1023.42 1023.75 1024.08 1024.39 1024.65 1024.85 1024.97 1025.00 1024.94 1024.83 1024.67 1024.51 1024.38 1024.29 1024.27 1024.31 1024.40 1024.51 1024.63 1024.72 1024.75 1024.73 1024.64 1024.50
1016.06 1016.43 1016.82 1017.24 1017.72 1018.25 1018.83 1019.43 1020.04 1020.62 1021.16 1021.62 1022.01 1022.33 1022.58 1022.80 1023.01 1023.22 1023.45 1023.72 1024.01 1024.32 1024.62 1024.89 1025.09 1025.22 1025.26 1025.21 1025.10 1024.95 1024.78 1024.62 1024.50 1024.44 1024.43 1024.48 1024.55 1024.62 1024.67 1024.68 1024.64 1024.54 1024.39
1016.35 1016.74 1017.14 1017.58 1018.08 1018.64 1019.25 1019.88 1020.52 1021.13 1021.68 1022.16 1022.54 1022.84 1023.07 1023.25 1023.41 1023.57 1023.75 1023.97 1024.22 1024.49 1024.76 1025.01 1025.21 1025.34 1025.39 1025.36 1025.26 1025.11 1024.95 1024.79 1024.66 1024.58 1024.55 1024.56 1024.61 1024.66 1024.69 1024.69 1024.64 1024.55 1024.41
1016.70 1017.10 1017.51 1017.96 1018.46 1019.03 1019.65 1020.30 1020.95 1021.58 1022.14 1022.63 1023.01 1023.31 1023.52 1023.68 1023.80 1023.92 1024.05 1024.22 1024.42 1024.64 1024.87 1025.09 1025.27 1025.39 1025.44 1025.42 1025.34 1025.21 1025.06 1024.92 1024.80 1024.71 1024.68 1024.68 1024.71 1024.75 1024.78 1024.78 1024.74 1024.66 1024.54
1017.09 1017.49 1017.91 1018.36 1018.86 1019.43 1020.04 1020.69 1021.35 1021.98 1022.55 1023.04 1023.44 1023.73 1023.95 1024.09 1024.19 1024.28 1024.38 1024.50 1024.65 1024.82 1025.00 1025.17 1025.32 1025.42 1025.46 1025.45 1025.38 1025.27 1025.15 1025.03 1024.93 1024.86 1024.83 1024.83 1024.86 1024.89 1024.92 1024.92 1024.89 1024.83 1024.73
1017.46 1017.88 1018.30 1018.76 1019.26 1019.81 1020.42 1021.06 1021.70 1022.33 1022.90 1023.40 1023.81 1024.12 1024.34 1024.50 1024.60 1024.67 1024.74 1024.82 1024.92 1025.04 1025.16 1025.28 1025.39 1025.46 1025.49 1025.47 1025.42 1025.33 1025.24 1025.15 1025.07 1025.02 1025.00 1025.01 1025.03 1025.06 1025.08 1025.08 1025.06 1025.00 1024.92
1017.77 1018.22 1018.66 1019.13 1019.63 1020.17 1020.76 1021.38 1022.01 1022.63 1023.20 1023.70 1024.12 1024.46 1024.70 1024.87 1024.98 1025.06 1025.11 1025.16 1025.22 1025.29 1025.36 1025.43 1025.49 1025.52 1025.53 1025.51 1025.47 1025.41 1025.35 1025.28 1025.23 1025.20 1025.19 1025.20 1025.21 1025.23 1025.23 1025.22 1025.19 1025.14 1025.06
1017.99 1018.48 1018.96 1019.44 1019.95 1020.50 1021.07 1021.67 1022.28 1022.87 1023.43 1023.94 1024.37 1024.72 1024.99 1025.18 1025.31 1025.39 1025.45 1025.48 1025.50 1025.53 1025.56 1025.58 1025.60 1025.61 1025.60 1025.58 1025.55 1025.51 1025.48 1025.44 1025.42 1025.40 1025.39 1025.39 1025.39 1025.38 1025.36 1025.33 1025.27 1025.21 1025.13
1018.11 1018.66 1019.18 1019.70 1020.22 1020.76 1021.32 1021.90 1022.48 1023.05 1023.59 1024.09 1024.53 1024.89 1025.18 1025.39 1025.54 1025.64 1025.70 1025.72 1025.73 1025.73 1025.72 1025.72 1025.71 1025.70 1025.69 1025.68 1025.67 1025.65 1025.64 1025.64 1025.63 1025.63 1025.61 1025.60 1025.57 1025.53 1025.47 1025.40 1025.32 1025.23 1025.14
1018.15 1018.75 1019.32 1019.87 1020.42 1020.96 1021.51 1022.06 1022.62 1023.16 1023.67 1024.15 1024.58 1024.95 1025.25 1025.48 1025.65 1025.76 1025.83 1025.86 1025.86 1025.85 1025.84 1025.82 1025.81 1025.80 1025.80 1025.81 1025.82 1025.84 1025.86 1025.88 1025.89 1025.89 1025.87 1025.82 1025.76 1025.68 1025.58 1025.47 1025.35 1025.23 1025.12
1018.15 1018.80 1019.41 1019.99 1020.55 1021.09 1021.63 1022.15 1022.67 1023.18 1023.67 1024.12 1024.53 1024.89 1025.20 1025.44 1025.62 1025.75 1025.84 1025.88 1025.90 1025.90 1025.89 1025.89 1025.89 1025.91 1025.94 1025.98 1026.04 1026.09 1026.14 1026.18 1026.20 1026.20 1026.16 1026.09 1025.99 1025.86 1025.71 1025.55 1025.40 1025.25 1025.11
1018.15 1018.82 1019.46 1020.06 1020.62 1021.15 1021.67 1022.17 1022.65 1023.12 1023.57 1023.99 1024.38 1024.73 1025.03 1025.28 1025.48 1025.63 1025.73 1025.80 1025.85 1025.88 1025.90 1025.94 1025.98 1026.04 1026.12 1026.22 1026.31 1026.41 1026.49 1026.55 1026.58 1026.56 1026.50 1026.39 1026.25 1026.07 1025.88 1025.68 1025.48 1025.31 1025.15
1018.17 1018.85 1019.48 1020.08 1020.63 1021.14 1021.63 1022.10 1022.55 1022.98 1023.40 1023.79 1024.16 1024.50 1024.79 1025.05 1025.26 1025.43 1025.56 1025.66 1025.74 1025.82 1025.90 1025.99 1026.09 1026.21 1026.35 1026.50 1026.65 1026.78 1026.90 1026.97 1026.99 1026.96 1026.87 1026.73 1026.54 1026.32 1026.08 1025.84 1025.62 1025.42 1025.25
1018.22 1018.87 1019.48 1020.05 1020.57 1021.06 1021.52 1021.95 1022.37 1022.77 1023.16 1023.53 1023.88 1024.21 1024.50 1024.76 1024.99 1025.18 1025.35 1025.49 1025.63 1025.76 1025.89 1026.05 1026.22 1026.41 1026.61 1026.82 1027.02 1027.19 1027.32 1027.40 1027.42 1027.37 1027.25 1027.06 1026.83 1026.57 1026.30 1026.03 1025.78 1025.56 1025.38
1018.29 1018.89 1019.45 1019.97 1020.45 1020.90 1021.32 1021.73 1022.12 1022.50 1022.87 1023.23 1023.57 1023.90 1024.20 1024.47 1024.72 1024.94 1025.14 1025.33 1025.51 1025.70 1025.90 1026.12 1026.35 1026.61 1026.87 1027.13 1027.37 1027.57 1027.72 1027.80 1027.80 1027.73 1027.58 1027.36 1027.10 1026.80 1026.50 1026.21 1025.95 1025.72 1025.53
1018.35 1018.88 1019.37 1019.83 1020.27 1020.68 1021.07 1021.44 1021.82 1022.18 1022.55 1022.91 1023.26 1023.59 1023.91 1024.20 1024.47 1024.72 1024.96 1025.18 1025.41 1025.64 1025.89 1026.16 1026.45 1026.76 1027.07 1027.37 1027.64 1027.86 1028.02 1028.09 1028.09 1027.99 1027.82 1027.57 1027.28 1026.97 1026.65 1026.35 1026.08 1025.84 1025.65
1018.38 1018.83 1019.26 1019.66 1020.04 1020.41 1020.77 1021.13 1021.49 1021.86 1022.23 1022.60 1022.96 1023.32 1023.65 1023.96 1024.25 1024.52 1024.78 1025.03 1025.28 1025.55 1025.83 1026.14 1026.47 1026.80 1027.15 1027.47 1027.76 1027.99 1028.15 1028.23 1028.21 1028.11 1027.92 1027.66 1027.36 1027.04 1026.71 1026.41 1026.14 1025.91 1025.72
1018.37 1018.76 1019.12 1019.47 1019.81 1020.14 1020.48 1020.83 1021.19 1021.56 1021.94 1022.33 1022.71 1023.08 1023.43 1023.75 1024.06 1024.34 1024.60 1024.86 1025.12 1025.39 1025.69 1026.00 1026.34 1026.69 1027.04 1027.38 1027.67 1027.91 1028.08 1028.16 1028.14 1028.04 1027.85 1027.60 1027.30 1026.98 1026.67 1026.37 1026.11 1025.88 1025.70
Thickness
5762 5759 5756 5753 5751 5749 5746 5745 5743 5742 5740 5738 5737 5736 5735 5734 5733 5731 5731 5730 5728 5728 5727 5727 5725 5725 5725 5724 5724 5722 5720 5717 5713 5717 5719 5717 5713 5711 5710 5708 5707 5704 5703
5762 5758 5755 5752 5750 5747 5745 5743 5742 5740 5738 5737 5735 5734 5733 5732 5731 5729 5728 5728 5726 5724 5723 5722 5721 5721 5720 5719 5718 5717 5716 5714 5710 5708 5711 5710 5707 5705 5703 5701 5700 5699 5696
5760 5756 5752 5750 5747 5744 5743 5741 5739 5737 5736 5735 5733 5731 5730 5729 5728 5727 5725 5724 5722 5721 5720 5718 5716 5715 5713 5713 5712 5712 5711 5710 5707 5704 5703 5702 5701 5699 5696 5693 5692 5689 5688
5758 5754 5749 5746 5744 5742 5740 5738 5736 5735 5733 5731 5730 5728 5727 5726 5725 5723 5722 5719 5718 5716 5715 5713 5711 5709 5708 5707 5706 5704 5703 5702 5700 5697 5695 5694 5691 5690 5687 5685 5683 5681 5679
5754 5750 5746 5743 5741 5739 5737 5735 5733 5731 5729 5727 5726 5724 5723 5722 5720 5718 5716 5715 5712 5710 5708 5706 5704 5701 5699 5699 5698 5697 5695 5693 5691 5688 5686 5684 5682 5679 5677 5676 5674 5671 5668
5750 5747 5744 5741 5738 5735 5733 5730 5728 5726 5724 5723 5720 5718 5717 5715 5712 5710 5708 5707 5705 5702 5700 5698 5696 5694 5691 5689 5687 5685 5683 5683 5681 5679 5677 5673 5671 5670 5668 5667 5664 5661 5657
5745 5742 5739 5736 5733 5731 5729 5726 5723 5721 5719 5716 5714 5712 5709 5706 5703 5702 5700 5699 5697 5694 5691 5690 5689 5687 5685 5683 5679 5676 5673 5671 5669 5668 5666 5663 5661 5660 5658 5656 5653 5650 5646
5740 5736 5733 5731 5728 5725 5723 5720 5717 5715 5712 5709 5707 5704 5701 5697 5695 5693 5692 5690 5688 5685 5683 5681 5679 5677 5676 5674 5672 5668 5664 5660 5659 5657 5654 5651 5649 5648 5647 5646 5643 5639 5636
5733 5730 5727 5724 5721 5718 5715 5712 5709 5707 5704 5702 5700 5697 5693 5689 5686 5685 5684 5682 5679 5676 5673 5671 5670 5667 5664 5663 5661 5658 5654 5649 5645 5642 5639 5637 5636 5635 5635 5635 5632 5630 5626
5726 5722 5719 5716 5713 5710 5706 5704 5702 5700 5697 5694 5691 5688 5685 5681 5676 5676 5675 5674 5671 5668 5664 5661 5657 5655 5653 5652 5651 5648 5643 5638 5636 5633 5629 5626 5625 5623 5621 5619 5619 5616 5613
5720 5715 5711 5708 5705 5702 5699 5696 5694 5691 5688 5685 5681 5678 5674 5670 5667 5666 5664 5665 5662 5659 5656 5651 5646 5642 5640 5639 5637 5634 5629 5626 5624 5621 5618 5615 5612 5609 5607 5604 5602 5601 5597
5711 5706 5702 5699 5697 5694 5690 5688 5685 5683 5680 5676 5672 5668 5665 5661 5657 5655 5652 5651 5650 5647 5644 5640 5633 5629 5627 5625 5623 5618 5616 5614 5613 5609 5606 5603 5599 5596 5592 5589 5586 5583 5580
5702 5697 5693 5690 5686 5684 5682 5679 5677 5674 5672 5669 5665 5660 5656 5653 5647 5643 5640 5638 5637 5635 5630 5625 5621 5618 5616 5613 5609 5606 5605 5604 5601 5597 5593 5589 5586 5582 5580 5577 5574 5571 5567
5692 5687 5684 5680 5677 5673 5671 5670 5667 5663 5661 5658 5655 5651 5647 5644 5639 5635 5632 5629 5625 5623 5619 5613 5610 5607 5605 5601 5598 5596 5593 5590 5588 5585 5581 5577 5574 5572 5570 5567 5565 5562 5559
5684 5679 5675 5671 5667 5661 5656 5652 5650 5645 5645 5645 5643 5640 5636 5631 5623 5621 5622 5620 5616 5613 5609 5606 5603 5600 5597 5593 5589 5585 5582 5580 5576 5573 5570 5567 5564 5562 5559 5556 5552 5551 5548
5675 5670 5666 5662 5657 5653 5647 5639 5631 5630 5628 5627 5626 5624 5619 5614 5611 5609 5607 5605 5602 5600 5600 5597 5593 5589 5585 5581 5578 5574 5570 5567 5564 5561 5558 5555 5553 5550 5547 5544 5542 5539 5535
5667 5662 5658 5653 5648 5644 5640 5635 5628 5619 5616 5613 5611 5608 5606 5602 5599 5597 5595 5593 5591 5589 5590 5586 5581 5577 5573 5569 5566 5562 5558 5553 5549 5548 5545 5543 5541 5538 5535 5532 5529 5526 5522
5659 5653 5649 5645 5640 5636 5632 5628 5623 5618 5613 5605 5598 5595 5593 5590 5588 5586 5585 5583 5582 5580 5578 5574 5569 5564 5560 5556 5553 5548 5545 5541 5538 5535 5533 5530 5527 5525 5522 5519 5515 5510 5509
5650 5645 5641 5636 5632 5628 5624 5620 5615 5610 5605 5599 5594 5587 5582 5580 5578 5576 5575 5576 5574 5570 5565 5561 5556 5552 5548 5544 5540 5536 5533 5529 5525 5523 5520 5516 5514 5512 5509 5506 5503 5495 5496
5639 5634 5632 5629 5625 5620 5616 5612 5607 5602 5598 5594 5590 5585 5580 5577 5575 5571 5568 5566 5563 5559 5554 5549 5545 5540 5536 5533 5529 5526 5522 5518 5515 5512 5508 5505 5502 5500 5497 5495 5493 5491 5488
5631 5625 5621 5621 5617 5613 5608 5604 5599 5595 5591 5587 5582 5575 5571 5573 5569 5564 5561 5557 5553 5548 5543 5539 5535 5531 5526 5523 5520 5516 5512 5509 5505 5501 5498 5495 5493 5490 5488 5486 5484 5482 5480
5624 5619 5616 5612 5607 5603 5599 5595 5592 5587 5583 5579 5573 5568 5561 5563 5561 5556 5552 5547 5542 5538 5534 5530 5527 5522 5518 5514 5510 5507 5504 5500 5496 5493 5490 5487 5484 5482 5481 5478 5476 5474 5471
5615 5611 5606 5602 5597 5590 5590 5587 5584 5581 5577 5573 5569 5564 5559 5556 5552 5547 5542 5538 5533 5529 5524 5520 5517 5513 5508 5505 5501 5498 5495 5492 5487 5484 5482 5480 5478 5476 5473 5470 5468 5466 5465
5606 5602 5598 5593 5588 5585 5583 5579 5577 5574 5570 5566 5561 5557 5552 5547 5543 5538 5534 5529 5525 5520 5516 5512 5508 5503 5499 5496 5493 5490 5485 5481 5478 5476 5473 5472 5471 5469 5467 5464 5462 5460 5458
5598 5594 5590 5586 5583 5579 5576 5573 5570 5566 5562 5557 5553 5549 5545 5540 5536 5531 5527 5522 5517 5513 5508 5504 5500 5496 5492 5488 5485 5481 5476 5472 5469 5467 5466 5466 5464 5462 5460 5458 5457 5454 5453
5590 5587 5583 5580 5577 5573 5570 5566 5562 5558 5554 5550 5546 5542 5537 5533 5529 5525 5520 5516 5512 5507 5502 5498 5494 5490 5485 5482 5478 5473 5469 5466 5463 5460 5459 5459 5459 5457 5455 5454 5452 5450 5448